EZY89BZ EGPF-EGGD

Flight info

Callsign EZY89BZ
Flight time N/A
Altitude 33000
Route NORBO T256 ROVLA UT256 DCS UN864 SUBUK DCT NOKIN N862 KARNO/N0451F320 DCT ALHUP/N0410F230 N862 WEVBE
Aircraft A320/M-SDE3FGHIRWY/LB1

Departure

Time 2026-01-20 14:56
Airport Glasgow Airport (EGPF)

Arrival

Time N/A
Airport Bristol Airport (EGGD)
Time Latitude Longitude Altitude Speed Heading
2026-01-20 14:41 55.86697 -4.43136 33 ft 0 kts 73°
2026-01-20 14:47 55.86683 -4.43194 30 ft 3 kts 50°
2026-01-20 14:48 55.86657 -4.43221 31 ft 1 kts 345°
2026-01-20 14:48 55.86656 -4.43220 31 ft 0 kts 344°
2026-01-20 14:49 55.86665 -4.43225 30 ft 0 kts 344°
2026-01-20 14:50 55.86673 -4.43229 29 ft 7 kts 344°
2026-01-20 14:50 55.86782 -4.43410 33 ft 12 kts 253°
2026-01-20 14:51 55.86733 -4.43710 33 ft 14 kts 252°
2026-01-20 14:51 55.86629 -4.43939 33 ft 11 kts 226°
2026-01-20 14:52 55.86530 -4.44124 33 ft 14 kts 226°
2026-01-20 14:52 55.86446 -4.44282 32 ft 21 kts 226°
2026-01-20 14:53 55.86316 -4.44831 33 ft 14 kts 320°
2026-01-20 14:53 55.86400 -4.44805 34 ft 5 kts 47°
2026-01-20 14:54 55.87022 -4.43637 39 ft 126 kts 46°
2026-01-20 14:54 55.88507 -4.40891 660 ft 172 kts 51°
2026-01-20 14:55 55.90556 -4.36993 669 ft 260 kts 50°
2026-01-20 14:55 55.93266 -4.32168 2560 ft 269 kts 43°
2026-01-20 14:56 55.97063 -4.31407 4402 ft 302 kts 333°
2026-01-20 14:57 55.98075 -4.43107 6141 ft 261 kts 227°
2026-01-20 14:57 55.96133 -4.48642 7871 ft 269 kts 231°
2026-01-20 14:58 55.92323 -4.55929 10060 ft 282 kts 216°
2026-01-20 14:58 55.89278 -4.61213 10539 ft 327 kts 218°
2026-01-20 14:59 55.85815 -4.66590 11860 ft 331 kts 208°
2026-01-20 14:59 55.83887 -4.68875 12594 ft 334 kts 208°
2026-01-20 15:00 55.79890 -4.73129 13980 ft 334 kts 198°
2026-01-20 15:00 55.77675 -4.74309 14648 ft 331 kts 187°
2026-01-20 15:01 55.70757 -4.75132 16627 ft 335 kts 181°
2026-01-20 15:01 55.66068 -4.75579 17918 ft 340 kts 181°
2026-01-20 15:02 55.61314 -4.75526 19005 ft 345 kts 170°
2026-01-20 15:02 55.56851 -4.72238 20038 ft 357 kts 148°
2026-01-20 15:03 55.52956 -4.66688 21006 ft 365 kts 144°
2026-01-20 15:03 55.48946 -4.60954 21928 ft 372 kts 144°
2026-01-20 15:04 55.44913 -4.55207 22800 ft 378 kts 144°
2026-01-20 15:04 55.42858 -4.52282 23208 ft 382 kts 144°
2026-01-20 15:05 55.36576 -4.43308 24226 ft 391 kts 143°
2026-01-20 15:05 55.32397 -4.37095 24897 ft 396 kts 143°
2026-01-20 15:07 55.19542 -4.18103 26843 ft 409 kts 143°
2026-01-20 15:09 55.02962 -3.89706 29069 ft 423 kts 137°
2026-01-20 15:11 54.86734 -3.60192 31430 ft 421 kts 136°
2026-01-20 15:13 54.70101 -3.34669 32646 ft 417 kts 162°
2026-01-20 15:15 54.47235 -3.30092 32636 ft 413 kts 175°
2026-01-20 15:17 54.21573 -3.23408 32629 ft 415 kts 170°
2026-01-20 15:19 53.98881 -3.16245 32651 ft 415 kts 170°
2026-01-20 15:21 53.76192 -3.09173 32648 ft 414 kts 170°
2026-01-20 15:23 53.53507 -3.02187 32634 ft 414 kts 170°
2026-01-20 15:25 53.30837 -2.95271 32629 ft 414 kts 170°
2026-01-20 15:27 53.10989 -2.89276 32634 ft 414 kts 171°
2026-01-20 15:29 52.88011 -2.90163 32638 ft 415 kts 187°
2026-01-20 15:31 52.65074 -2.94612 27550 ft 415 kts 182°
2026-01-20 15:32 52.45836 -2.96209 22569 ft 379 kts 181°
2026-01-20 15:33 52.40651 -2.96640 21358 ft 367 kts 181°
2026-01-20 15:33 52.35619 -2.97056 20231 ft 357 kts 181°
2026-01-20 15:34 52.30715 -2.97461 19180 ft 348 kts 181°
2026-01-20 15:34 52.28312 -2.97657 18686 ft 344 kts 181°
2026-01-20 15:35 52.23588 -2.98040 17730 ft 336 kts 181°
2026-01-20 15:35 52.18999 -2.98407 16820 ft 325 kts 181°
2026-01-20 15:36 52.14554 -2.98767 15958 ft 315 kts 181°
2026-01-20 15:36 52.07892 -2.99294 15345 ft 331 kts 181°
2026-01-20 15:37 52.03292 -2.99664 15117 ft 330 kts 181°
2026-01-20 15:37 51.98715 -3.00040 14889 ft 328 kts 181°
2026-01-20 15:38 51.94197 -2.99669 14583 ft 326 kts 167°
2026-01-20 15:38 51.89854 -2.97214 12847 ft 335 kts 161°
2026-01-20 15:39 51.87689 -2.95901 12036 ft 320 kts 161°
2026-01-20 15:39 51.83826 -2.93557 11476 ft 269 kts 161°
2026-01-20 15:40 51.80571 -2.91605 11005 ft 238 kts 162°
2026-01-20 15:40 51.75947 -2.88866 10256 ft 234 kts 162°
2026-01-20 15:41 51.72905 -2.87052 9762 ft 232 kts 162°
2026-01-20 15:41 51.69838 -2.85443 9491 ft 231 kts 166°
2026-01-20 15:42 51.66738 -2.84094 9224 ft 230 kts 166°
2026-01-20 15:42 51.65192 -2.83420 9076 ft 229 kts 166°
2026-01-20 15:43 51.62109 -2.82084 8784 ft 229 kts 166°
2026-01-20 15:43 51.59028 -2.80756 8492 ft 229 kts 166°
2026-01-20 15:44 51.55970 -2.79428 7752 ft 226 kts 166°
2026-01-20 15:44 51.51464 -2.77484 6784 ft 223 kts 167°
2026-01-20 15:45 51.48633 -2.76261 6531 ft 188 kts 167°
2026-01-20 15:45 51.46193 -2.75210 6372 ft 171 kts 167°
2026-01-20 15:46 51.44039 -2.74281 6233 ft 156 kts 168°
2026-01-20 15:46 51.41956 -2.73384 6093 ft 156 kts 168°
2026-01-20 15:47 51.40905 -2.72936 6024 ft 157 kts 168°
2026-01-20 15:47 51.38942 -2.73939 5849 ft 175 kts 227°
2026-01-20 15:48 51.39061 -2.78249 5384 ft 210 kts 269°
2026-01-20 15:48 51.40207 -2.85011 4659 ft 208 kts 270°
2026-01-20 15:49 51.40944 -2.89463 4186 ft 206 kts 269°
2026-01-20 15:49 51.41656 -2.93917 3716 ft 205 kts 266°
2026-01-20 15:50 51.41007 -2.97498 3533 ft 153 kts 208°
2026-01-20 15:50 51.40113 -2.98259 3427 ft 142 kts 187°
2026-01-20 15:51 51.38547 -2.97886 3284 ft 143 kts 150°
2026-01-20 15:51 51.37474 -2.94957 3094 ft 161 kts 123°
2026-01-20 15:52 51.37503 -2.91213 2871 ft 160 kts 104°
2026-01-20 15:52 51.37704 -2.86169 2298 ft 146 kts 103°
2026-01-20 15:53 51.37830 -2.82983 1902 ft 141 kts 102°
2026-01-20 15:53 51.37950 -2.80031 1519 ft 127 kts 101°
2026-01-20 15:54 51.38005 -2.78634 1331 ft 126 kts 100°
2026-01-20 15:54 51.38116 -2.75750 967 ft 130 kts 96°
2026-01-20 15:55 51.38233 -2.72871 720 ft 132 kts 96°
2026-01-20 15:55 51.38471 -2.69554 1938 ft 171 kts 92°
2026-01-20 15:56 51.39095 -2.65448 2961 ft 203 kts 93°
2026-01-20 15:56 51.42606 -2.60894 3037 ft 259 kts 12°
2026-01-20 15:57 51.45914 -2.62489 3033 ft 251 kts 312°
2026-01-20 15:57 51.47606 -2.66859 3036 ft 221 kts 266°
2026-01-20 15:58 51.47691 -2.69218 3034 ft 206 kts 249°
2026-01-20 15:58 51.46802 -2.75524 3025 ft 183 kts 240°
2026-01-20 15:59 51.46505 -2.77506 3037 ft 182 kts 240°
2026-01-20 15:59 51.45912 -2.81456 3033 ft 182 kts 240°
2026-01-20 16:00 51.45327 -2.85392 3025 ft 179 kts 240°
2026-01-20 16:00 51.44472 -2.91165 2513 ft 175 kts 232°
2026-01-20 16:01 51.43283 -2.94359 2527 ft 165 kts 220°
2026-01-20 16:01 51.42637 -2.95874 2528 ft 165 kts 220°
2026-01-20 16:02 51.41120 -2.98249 2527 ft 141 kts 186°
2026-01-20 16:02 51.39368 -2.97540 2522 ft 138 kts 143°
2026-01-20 16:03 51.37957 -2.95418 2521 ft 142 kts 138°
2026-01-20 16:03 51.37451 -2.92199 2539 ft 158 kts 102°
2026-01-20 16:04 51.37594 -2.88831 2489 ft 149 kts 103°
2026-01-20 16:04 51.37790 -2.83966 1999 ft 143 kts 102°
2026-01-20 16:05 51.37912 -2.80948 1634 ft 132 kts 101°
2026-01-20 16:05 51.37970 -2.79478 1435 ft 132 kts 99°
2026-01-20 16:06 51.38087 -2.76485 1045 ft 134 kts 97°
2026-01-20 16:06 51.38217 -2.73439 659 ft 131 kts 93°
2026-01-20 16:07 51.38459 -2.70418 1982 ft 153 kts 95°
2026-01-20 16:07 51.38889 -2.66648 2681 ft 192 kts 94°
2026-01-20 16:08 51.39478 -2.62248 3014 ft 217 kts 76°
2026-01-20 16:08 51.43858 -2.59250 3026 ft 257 kts 342°
2026-01-20 16:09 51.45379 -2.60608 3037 ft 247 kts 306°
2026-01-20 16:09 51.46286 -2.65229 3031 ft 211 kts 253°
2026-01-20 16:10 51.46032 -2.69882 3016 ft 209 kts 250°
2026-01-20 16:10 51.45732 -2.74482 3032 ft 206 kts 250°
2026-01-20 16:11 51.45420 -2.79055 3039 ft 207 kts 250°
2026-01-20 16:11 51.45162 -2.83438 3034 ft 190 kts 250°
2026-01-20 16:12 51.44852 -2.87559 3029 ft 179 kts 240°
2026-01-20 16:12 51.43729 -2.93010 3017 ft 166 kts 235°
2026-01-20 16:13 51.42771 -2.96156 2786 ft 141 kts 207°
2026-01-20 16:13 51.41942 -2.96789 2564 ft 129 kts 183°
2026-01-20 16:14 51.40181 -2.96191 2526 ft 138 kts 161°
2026-01-20 16:14 51.38358 -2.95055 2517 ft 143 kts 151°
2026-01-20 16:15 51.37448 -2.92111 2527 ft 172 kts 100°
2026-01-20 16:15 51.37612 -2.88416 2428 ft 157 kts 101°
2026-01-20 16:16 51.37750 -2.85018 2088 ft 145 kts 100°
2026-01-20 16:16 51.37924 -2.80669 1530 ft 127 kts 98°
2026-01-20 16:17 51.38034 -2.77840 1193 ft 127 kts 97°
2026-01-20 16:17 51.38089 -2.76426 1041 ft 131 kts 97°
2026-01-20 16:18 51.38209 -2.73560 685 ft 125 kts 96°
2026-01-20 16:18 51.38310 -2.70865 1093 ft 133 kts 97°
2026-01-20 16:19 51.38430 -2.67380 2067 ft 180 kts 97°
2026-01-20 16:19 51.38653 -2.62989 2949 ft 212 kts 96°
2026-01-20 16:20 51.39567 -2.58229 3036 ft 259 kts 53°
2026-01-20 16:20 51.44201 -2.52367 3163 ft 292 kts 43°
2026-01-20 16:21 51.47473 -2.48439 5211 ft 297 kts 43°
2026-01-20 16:21 51.49126 -2.46418 6174 ft 301 kts 45°
2026-01-20 16:22 51.53056 -2.38747 8880 ft 298 kts 71°
2026-01-20 16:22 51.53898 -2.35712 9760 ft 297 kts 77°